sat.trackr.live / text

‹ back to catalog

LEMUR-2-TARTIFLETTE

NORAD 66784 · 2025-276DZ

PAYLOAD ACTIVE UNKNOWN

§ Identity

Operator
Country
US
Launch date
2025-11-28
Launch site
AFWTR
Launch vehicle
Mass (kg)
RCS (m²)

Purposes: earth_obs

External: N2YO · Heavens-Above · Gunter

§ Orbital elements

Epoch: 2026-05-25T03:17:56.385888Z

Period
96.08 min
Inclination
97.5251°
Eccentricity
0.0013185
Mean motion
14.98715184 rev/d
Perigee alt
561.7 km
Apogee alt
580.0 km
Semi-major
6,949.0 km
B*
6.3412e-4
RAAN
216.5703°
Arg perigee
207.4417°
Mean anomaly
152.6112°
Rev number
2,674

§ Raw data

LEMUR-2-TARTIFLETTE1 66784U 25276DZ  26145.13745817  .00007587  00000+0  63412-3 0  99922 66784  97.5251 216.5703 0013185 207.4417 152.6112 14.98715184 26744

JSON: /api/v1/satellites/66784 · /tle

For live sub-satellite position, see the globe view (requires WebGL).

§ Visibility from observer

Set your observer location to see the next 7 days of passes ≥ 10°. The values pass through the URL so the page stays shareable.

No JS? Fill the form by hand. The geolocation button needs JavaScript.